Home > Weather > New Bedford > Past weeks

Flag for USA Past Weather in New Bedford, Massachusetts, USA — Yesterday and Last 2 Weeks

Now
61 °F

Clear.


Feels Like: 61 °F
Forecast: 60 / 82 °F
Wind: No wind

Location: New Bedford Regional Airport

Current Time: May 26, 2016 at 5:01:09 AM

Latest Report: May 26, 2016 at 3:53 AM


Visibility: 10 mi

Pressure: 30.03 "Hg

Humidity: 75%

Dew Point: 53 °F

Location of New BedfordLocation

Past Weather in New Bedford — Graph

°F

New Bedford Temperature Yesterday

Maximum temperature yesterday: 80 °F (at 3:53 PM)
Minimum temperature yesterday: 53 °F (at 12:53 AM)
Average temperature yesterday: 68 °F

High & Low Weather Summary for the Past Weeks

 TemperatureHumidityPressure
High80 °F (May 25, 3:53 PM)97% (May 13, 2:53 AM)30.21 "Hg (May 13, 2:53 AM)
Low40 °F (May 11, 4:53 AM)24% (May 11, 1:53 PM)29.53 "Hg (May 15, 3:53 AM)
Average59 °F65%29.96 "Hg
* Reported May 11 3:53 AM — May 26 3:53 AM, New Bedford, Weather by CustomWeather, © 2016

Note: Actual official high and low records may vary slightly from our data, if they occured in-between our weather recording intervals... More about our weather records

Advertising

New Bedford Weather History for the Previous 24 Hours

Scroll right to see more
 ConditionsComfort  
Time TempWeatherWind HumidityBarometerVisibility
3:53 AM
Thu, May 26
61 °FClear.No wind75%30.03 "Hg10 mi
2:53 AM62 °FClear.5 mph70%30.02 "Hg10 mi
1:53 AM66 °FClear.7 mph59%30.00 "Hg10 mi
12:53 AM69 °FClear.7 mph51%29.99 "Hg10 mi
11:53 PM
Wed, May 25
70 °FClear.8 mph49%30.00 "Hg10 mi
10:53 PM70 °FClear.8 mph49%30.00 "Hg10 mi
9:53 PM70 °FClear.7 mph51%30.00 "Hg10 mi
8:53 PM72 °FSunny.7 mph49%29.98 "Hg10 mi
7:53 PM74 °FSunny.6 mph50%29.97 "Hg10 mi
6:53 PM78 °FSunny.7 mph45%29.96 "Hg10 mi
5:53 PM80 °FSunny.9 mph44%29.96 "Hg10 mi
4:53 PM80 °FSunny.8 mph45%29.96 "Hg10 mi
3:53 PM80 °FSunny.9 mph45%29.96 "Hg10 mi
2:53 PM79 °FSunny.8 mph50%29.97 "Hg10 mi
1:53 PM74 °FSunny.8 mph62%29.97 "Hg10 mi
12:53 PM78 °FSunny.No wind46%29.98 "Hg10 mi
11:53 AM74 °FSunny.8 mph62%30.00 "Hg10 mi
10:53 AM71 °FSunny.8 mph68%30.00 "Hg10 mi
9:53 AM68 °FSunny.8 mph73%30.01 "Hg10 mi
8:53 AM65 °FSunny.9 mph78%30.01 "Hg10 mi
7:53 AM60 °FScattered clouds.No wind90%30.01 "Hg10 mi
6:53 AM56 °FLow clouds.No wind93%30.01 "Hg9 mi
5:53 AM55 °FLow clouds.No wind96%30.00 "Hg10 mi
Weather by CustomWeather, © 2016

See weather overviewHow to use our weather pages